TimePDT,TemperatureF,Dew PointF,Humidity,Sea Level PressureIn,VisibilityMPH,Wind Direction,Wind SpeedMPH,Gust SpeedMPH,PrecipitationIn,Events,Conditions,WindDirDegrees,DateUTC
12:50 AM,93.0,46.9,20,29.63,10.0,SW,15.0,-,N/A,,Clear,230,2013-07-05 07:50:00
1:50 AM,88.0,48.0,25,29.64,10.0,West,16.1,-,N/A,,Clear,260,2013-07-05 08:50:00
2:50 AM,86.0,48.0,27,29.63,10.0,WNW,11.5,-,N/A,,Clear,290,2013-07-05 09:50:00
3:50 AM,84.9,48.0,28,29.63,10.0,WNW,12.7,-,N/A,,Clear,290,2013-07-05 10:50:00
4:50 AM,84.0,48.0,28,29.63,10.0,WNW,15.0,-,N/A,,Clear,290,2013-07-05 11:50:00
5:50 AM,82.9,50.0,32,29.64,10.0,West,10.4,-,N/A,,Clear,280,2013-07-05 12:50:00
6:50 AM,84.0,51.1,32,29.65,10.0,Calm,Calm,-,N/A,,Clear,0,2013-07-05 13:50:00
7:50 AM,88.0,51.1,28,29.67,10.0,WNW,8.1,-,N/A,,Clear,300,2013-07-05 14:50:00
8:50 AM,93.0,51.1,24,29.68,10.0,NW,6.9,-,N/A,,Clear,310,2013-07-05 15:50:00
9:50 AM,100.0,50.0,18,29.65,10.0,West,13.8,23.0,N/A,,Clear,280,2013-07-05 16:50:00
10:50 AM,102.0,50.0,17,29.66,10.0,West,16.1,-,N/A,,Clear,270,2013-07-05 17:50:00
11:50 AM,106.0,48.9,15,29.64,10.0,WNW,13.8,19.6,N/A,,Clear,290,2013-07-05 18:50:00
12:50 PM,108.0,46.9,13,29.62,10.0,West,11.5,24.2,N/A,,Clear,280,2013-07-05 19:50:00
1:50 PM,109.0,46.9,13,29.61,10.0,South,10.4,21.9,N/A,,Clear,190,2013-07-05 20:50:00
2:50 PM,111.0,39.0,9,29.58,10.0,West,20.7,26.5,N/A,,Clear,260,2013-07-05 21:50:00
3:50 PM,109.9,43.0,11,29.57,10.0,WSW,16.1,24.2,N/A,,Clear,250,2013-07-05 22:50:00
4:50 PM,108.0,45.0,12,29.55,10.0,West,11.5,24.2,N/A,,Clear,270,2013-07-05 23:50:00
5:50 PM,108.0,39.9,10,29.55,10.0,West,17.3,-,N/A,,Clear,280,2013-07-06 00:50:00
6:50 PM,104.0,48.9,16,29.57,10.0,SW,23.0,-,N/A,,Clear,230,2013-07-06 01:50:00
7:50 PM,99.0,48.9,18,29.59,10.0,SW,20.7,-,N/A,,Clear,230,2013-07-06 02:50:00
8:50 PM,96.1,50.0,21,29.61,10.0,WSW,15.0,-,N/A,,Clear,240,2013-07-06 03:50:00
9:50 PM,93.0,51.1,24,29.64,10.0,SW,17.3,-,N/A,,Clear,220,2013-07-06 04:50:00
10:50 PM,91.9,50.0,24,29.65,10.0,SW,19.6,-,N/A,,Clear,230,2013-07-06 05:50:00
11:50 PM,91.0,50.0,24,29.64,10.0,SW,20.7,-,N/A,,Clear,230,2013-07-06 06:50:00